Wetbulb
54.25 54.36 54.42 54.32 54.75 55.17 54.40 54.56 54.72 56.78 55.72 53.68 54.20 54.47 54.73 54.91 55.17 51.92 50.38 53.34 51.24 47.32 49.10 51.35 50.88 46.74 47.33 44.87 40.78 42.93 42.32 43.74 39.48 36.58 37.47 33.89 32.50 35.98 33.45 37.67 35.45 35.05 31.13 28.91 32.25 28.78 29.35 47.10 46.85 40.66 42.78 44.16 46.42 47.41
54.25 54.27 54.26 54.03 53.91 54.26 53.76 53.89 55.11 56.28 55.41 53.82 54.17 54.16 54.16 54.74 54.82 54.20 51.15 55.31 55.99 49.30 49.85 53.07 53.52 52.65 53.00 51.21 46.18 42.68 43.68 42.58 41.88 39.22 39.34 38.93 35.29 36.96 35.25 30.12 38.82 32.28 38.22 34.82 36.39 35.85 43.62 45.92 45.88 46.74 47.41 45.77 45.22 47.31
53.83 53.99 53.99 53.96 53.44 52.73 53.72 53.74 55.05 56.26 55.19 53.61 54.10 54.00 53.73 54.17 54.34 53.07 49.05 51.50 52.46 48.99 49.47 48.79 49.49 50.06 52.31 51.22 51.42 45.44 45.30 45.99 44.14 44.01 40.90 39.97 37.33 38.23 33.68 34.96 37.34 40.41 40.98 36.29 37.89 42.38 43.31 45.09 47.15 48.16 47.59 47.50 47.61 47.73
53.71 53.89 53.97 53.88 53.92 53.54 53.50 53.60 55.17 56.22 54.34 53.17 53.91 53.60 53.72 54.21 53.82 53.19 48.51 51.17 52.28 50.19 45.93 47.28 52.29 50.14 51.98 51.01 52.56 51.47 49.22 47.98 47.21 43.83 38.63 38.35 38.06 41.38 37.76 38.94 37.76 40.95 41.31 38.39 37.72 41.11 42.94 46.55 46.97 47.36 47.20 48.70 48.36 47.42
53.35 53.56 53.77 53.83 53.74 53.40 52.81 53.52 54.91 55.92 53.27 53.13 53.64 53.56 53.66 53.52 53.13 50.30 48.40 51.05 53.67 50.91 45.85 47.11 51.81 50.69 51.10 51.43 51.86 51.22 48.61 46.71 44.96 42.52 40.21 38.69 41.33 41.49 40.39 39.64 37.18 41.97 40.37 37.49 37.14 43.18 42.29 42.86 45.97 47.69 46.35 47.14 47.19 46.62
53.22 53.40 53.58 53.65 53.62 53.06 53.56 53.60 54.95 54.78 52.71 52.88 53.33 53.62 53.41 53.01 52.40 50.48 50.38 53.83 51.92 53.40 47.85 43.67 50.19 48.68 49.16 50.77 50.19 48.16 48.69 46.98 45.27 43.16 41.05 43.06 45.03 41.23 36.56 33.10 41.84 43.37 45.39 44.82 43.37 45.77 46.76 48.54 51.21 50.67 47.04 45.85 47.60 46.37
53.19 53.33 53.37 53.63 53.57 53.54 53.89 54.20 54.87 52.48 52.77 52.69 53.00 52.96 52.74 52.02 47.93 49.24 50.51 53.30 51.17 51.96 48.90 45.72 46.01 49.24 51.03 49.88 48.43 48.14 48.39 47.17 45.60 43.31 42.27 42.80 43.05 42.87 37.94 33.17 42.18 44.19 44.54 46.48 47.47 46.57 44.26 47.13 46.06 49.83 50.12 49.15 50.03 47.62
52.81 52.83 53.17 53.45 53.45 53.54 53.91 54.45 52.88 51.14 52.22 52.92 52.63 52.67 52.45 52.17 50.44 47.70 50.93 51.77 50.14 50.61 50.66 44.90 45.07 46.42 49.01 45.15 44.55 47.73 45.99 45.56 45.26 43.80 44.57 43.45 43.58 42.00 36.10 41.43 43.38 45.48 45.90 45.73 47.35 47.39 46.19 46.52 47.47 47.98 49.32 49.57 47.18 46.94
52.50 52.48 52.70 53.05 53.13 53.38 53.91 52.63 51.54 51.74 52.02 52.13 52.34 52.42 50.40 48.96 48.39 53.08 57.08 54.79 53.26 51.80 46.75 46.19 42.77 42.98 49.60 46.75 46.94 46.99 45.67 41.84 47.45 42.72 42.96 44.04 39.81 36.27 41.17 42.70 44.41 46.21 45.95 45.99 47.69 47.24 46.71 46.46 46.42 47.00 47.49 48.33 46.85 45.42
52.77 52.68 52.54 52.65 53.17 52.91 51.81 51.28 51.36 51.35 51.40 51.91 50.53 49.75 48.67 52.96 57.34 56.94 52.96 50.04 49.57 49.47 48.11 44.88 48.59 45.83 48.33 46.15 45.12 46.16 45.99 43.26 40.59 44.21 46.33 40.49 40.20 43.60 44.92 46.64 47.58 47.33 48.16 48.46 43.23 42.85 43.54 44.35 45.75 46.73 46.51 49.66 48.97 48.55
52.45 52.61 52.59 52.20 51.72 51.19 50.72 50.51 50.84 51.30 51.89 50.36 49.01 50.16 55.92 56.36 51.93 50.08 44.63 45.13 45.50 43.57 46.46 46.64 46.51 45.08 51.68 44.90 45.54 49.53 46.05 45.15 35.76 41.09 41.70 34.91 39.51 44.94 48.63 48.62 48.56 49.29 47.95 47.06 46.69 46.90 47.31 46.36 46.41 47.00 47.25 49.65 49.89 49.40
50.55 50.69 50.83 51.00 50.79 50.55 50.78 50.75 50.84 49.51 50.21 48.60 48.88 50.87 51.87 50.59 48.29 43.59 42.58 46.36 45.55 43.25 47.71 46.60 47.47 46.98 49.13 50.80 47.09 47.14 44.57 46.12 40.12 47.28 42.58 36.05 42.09 45.23 46.60 47.80 49.42 47.41 47.61 47.76 48.49 48.49 48.33 49.55 49.03 48.22 48.06 47.30 50.25 50.21
51.67 51.84 50.87 50.15 50.59 50.95 50.78 50.62 50.73 50.82 50.05 50.02 48.89 47.61 49.02 45.05 37.80 40.22 38.06 41.53 43.02 47.18 49.45 50.41 48.64 49.28 50.55 49.39 44.62 43.94 42.43 42.56 46.73 41.67 37.20 39.14 43.54 45.34 44.89 47.53 47.61 47.82 48.92 48.88 48.24 48.80 48.86 48.67 51.00 50.08 49.68 49.08 49.40 48.71
50.91 51.08 50.91 51.88 50.80 50.74 50.70 50.36 50.64 50.16 47.75 47.14 46.88 36.61 41.41 39.96 42.66 42.96 43.06 45.39 48.53 49.35 49.71 50.16 48.78 48.05 48.46 45.37 44.75 40.71 43.92 44.04 39.40 36.45 36.43 41.58 42.15 43.39 46.36 47.11 48.35 47.16 47.48 47.14 47.61 48.34 47.24 47.73 48.84 50.15 50.45 49.87 50.53 49.44
50.65 50.72 50.90 51.74 51.82 51.52 51.80 51.46 50.61 47.68 47.32 46.78 46.55 35.69 41.91 44.60 45.38 47.40 49.76 48.65 50.73 51.20 48.90 46.59 45.93 48.12 46.55 44.95 44.46 43.12 40.39 37.53 37.74 35.08 39.58 42.91 43.86 47.07 44.89 46.62 43.87 44.02 43.58 43.42 43.83 44.39 44.67 44.90 45.12 45.74 46.69 45.83 45.18 45.29
50.65 50.48 49.98 51.82 51.54 51.33 51.20 50.19 47.60 47.32 48.19 47.72 45.78 42.91 44.63 43.32 43.45 44.24 47.68 48.39 52.71 52.11 51.11 47.10 44.12 45.24 44.64 44.49 40.63 39.58 37.88 34.29 36.80 41.89 44.41 45.72 48.47 46.89 43.57 43.65 43.20 43.57 42.61 41.95 42.22 42.78 43.43 43.54 43.20 43.15 43.69 42.77 42.95 43.38
49.81 50.67 51.03 51.32 51.64 51.36 50.84 49.02 48.75 47.19 47.00 46.96 43.93 45.39 44.63 43.52 42.99 44.12 45.76 49.05 53.52 50.37 46.28 46.53 42.91 41.44 43.07 39.73 38.42 41.52 37.49 39.39 43.72 46.75 47.43 45.32 44.94 43.78 42.82 42.29 43.31 43.21 42.22 41.56 41.46 41.84 42.67 43.06 42.26 40.79 39.48 40.39 41.35 41.75
48.21 50.30 51.63 51.22 50.70 50.78 51.95 49.26 49.20 50.16 46.61 46.57 43.25 44.16 45.36 46.42 45.70 45.99 51.21 52.78 51.58 50.98 49.32 45.08 46.61 40.81 38.62 36.15 37.20 40.37 42.24 44.55 47.75 46.29 47.91 45.73 44.22 43.40 43.59 41.66 42.76 43.13 41.76 41.65 42.55 42.92 42.31 41.20 39.73 39.14 39.14 40.57 41.22 42.05
48.45 47.87 50.29 50.56 49.57 46.90 48.22 50.91 50.59 44.63 45.23 45.93 46.53 47.11 47.72 47.64 52.10 52.28 50.32 50.17 50.83 52.38 49.53 46.62 43.63 42.45 41.40 42.32 42.12 42.77 43.71 45.72 45.91 46.40 46.42 45.88 44.84 44.07 43.25 42.71 42.96 42.38 41.24 41.32 42.21 42.12 41.35 40.60 39.48 39.43 41.09 40.86 40.17 42.61
50.02 50.34 50.78 50.93 50.38 46.97 47.08 48.18 51.35 46.35 45.13 46.68 46.82 46.35 46.97 47.26 51.45 51.03 50.14 48.79 48.49 49.69 47.26 46.29 46.59 46.15 45.61 45.62 45.93 45.92 46.34 48.51 48.36 45.87 44.41 45.43 47.35 44.00 42.05 41.12 41.39 40.51 40.23 40.65 41.79 42.19 40.05 39.50 39.56 39.32 39.79 41.10 40.72 39.99
50.04 51.26 51.18 50.38 48.30 46.65 46.03 47.16 49.16 47.55 48.54 46.81 47.75 47.39 47.81 50.03 48.23 48.00 49.87 49.70 47.80 46.27 46.55 49.62 50.93 51.88 49.65 48.17 48.98 48.47 45.97 49.25 47.82 47.51 46.55 43.47 44.07 43.54 41.79 43.11 41.46 41.01 39.94 40.03 40.02 40.72 40.79 38.86 39.45 40.01 40.05 40.10 42.87 45.27
50.58 52.30 50.20 49.62 48.91 49.95 46.66 48.65 46.82 47.51 46.35 46.52 46.48 46.83 45.20 49.62 48.29 47.79 51.49 48.74 48.02 48.26 49.25 49.74 50.27 49.98 48.96 49.13 47.59 46.02 45.17 41.78 40.24 42.53 45.19 45.10 42.50 40.34 42.43 42.30 40.86 39.73 40.13 40.48 40.40 40.48 40.78 41.46 41.17 41.42 41.85 41.14 41.00 41.58
49.67 50.29 48.95 50.77 49.06 45.58 41.96 50.03 46.35 46.84 44.72 45.48 49.25 48.94 46.84 46.76 50.20 52.87 49.02 50.85 51.55 54.33 52.03 50.92 50.72 50.43 50.07 49.66 48.94 47.65 44.69 43.51 40.70 40.03 40.94 41.16 40.36 42.03 43.09 41.67 42.33 40.86 39.76 39.86 41.04 42.47 42.41 42.75 42.63 42.03 42.24 41.37 40.89 40.82
51.39 48.98 48.33 46.64 45.92 40.18 47.03 46.21 50.04 48.06 49.06 44.96 46.70 47.08 47.44 48.67 51.16 47.90 46.53 49.36 52.17 53.06 51.25 50.62 50.81 49.53 49.19 48.33 48.84 48.17 44.46 42.90 41.00 41.48 40.81 40.72 39.87 39.94 42.27 42.61 41.80 41.73 41.94 41.84 42.05 41.69 41.97 42.13 42.70 41.60 41.67 41.35 40.47 39.95
43.15 41.42 41.52 35.69 44.79 45.62 45.29 45.21 45.27 45.61 45.19 46.31 47.16 47.19 48.13 49.18 46.82 46.58 46.78 49.12 51.55 51.88 50.42 50.39 49.05 48.97 47.28 46.82 46.00 43.60 44.90 42.96 41.22 40.25 41.21 41.40 40.96 40.38 39.19 40.97 41.44 42.39 43.19 41.80 41.10 42.09 41.74 41.23 41.83 41.60 41.36 40.06 39.58 40.11
38.33 42.94 38.95 43.97 44.02 43.16 44.95 45.55 46.99 46.71 46.07 46.68 47.75 49.84 50.67 46.53 43.90 45.08 45.44 48.23 48.83 51.37 52.01 49.79 48.62 47.58 46.85 47.04 43.86 42.58 42.08 43.74 42.87 41.32 40.65 42.32 41.96 41.98 39.22 40.04 39.96 40.51 42.76 42.83 41.92 41.65 41.64 41.27 41.29 41.55 41.08 40.45 40.41 41.16
38.76 42.71 45.71 47.87 46.18 46.16 46.26 48.80 48.55 45.42 45.01 45.84 47.44 47.33 46.34 44.06 44.48 45.89 49.09 50.04 49.09 49.85 52.00 51.38 50.59 49.09 50.34 47.59 43.44 42.92 43.91 43.97 44.12 42.83 42.45 42.83 42.94 44.31 43.46 41.35 39.54 41.15 42.58 43.75 42.52 42.56 41.70 41.66 42.01 41.88 40.81 40.80 40.89 41.44
44.65 45.58 43.53 45.44 45.88 46.93 45.00 45.04 44.87 45.90 45.85 51.32 50.16 47.33 45.28 45.78 45.46 49.24 50.24 51.47 51.59 51.55 51.78 51.79 51.84 51.41 47.74 45.02 45.28 43.87 42.20 42.91 43.29 42.36 43.00 43.22 42.60 43.51 43.75 42.99 42.28 41.52 42.80 43.22 42.99 42.78 42.70 42.65 41.79 41.94 41.40 40.32 40.51 41.92
44.63 46.99 47.10 44.90 46.01 46.30 46.29 45.35 45.46 48.01 50.45 50.23 49.32 47.71 46.69 49.59 51.53 50.54 51.11 52.18 52.13 51.26 49.33 44.67 45.50 47.90 45.28 43.86 44.05 44.83 42.69 42.47 41.21 39.36 39.18 37.64 39.09 40.41 41.36 41.44 41.28 40.92 40.60 39.98 39.75 41.51 42.78 42.11 42.11 42.61 43.26 42.34 42.19 42.33
43.83 46.88 44.50 45.65 45.28 44.80 47.03 47.98 47.10 49.66 51.05 52.33 52.50 50.84 50.14 51.36 53.39 53.16 50.73 51.96 49.91 48.18 46.48 46.36 46.42 46.06 44.25 43.77 41.37 40.21 42.27 42.65 42.84 42.14 40.35 39.74 40.18 42.25 40.76 41.62 41.79 42.25 40.44 39.36 38.55 38.35 39.64 40.37 39.59 40.78 41.50 41.55 41.09 41.10
47.21 46.48 45.20 45.72 45.04 47.71 50.15 49.40 49.39 54.48 53.32 50.49 51.09 49.76 49.69 52.41 54.08 54.20 52.34 49.12 47.67 46.23 46.40 44.96 44.73 45.87 45.10 43.54 42.54 41.93 40.59 42.65 43.89 44.43 44.48 43.74 44.40 44.34 43.26 43.41 43.82 44.06 41.54 41.05 40.44 39.62 39.44 39.60 40.92 41.45 41.54 42.00 41.43 41.18
46.17 45.58 44.94 45.62 47.18 50.15 50.20 48.33 47.14 50.68 51.26 50.61 49.96 50.96 51.30 51.82 50.39 52.46 55.47 53.70 49.41 46.73 46.08 45.97 45.31 45.44 47.05 47.61 47.25 46.81 43.90 46.36 45.92 45.48 45.00 44.31 45.48 45.43 45.43 44.12 44.19 45.73 45.06 44.08 43.35 41.83 41.52 41.22 40.84 41.73 42.77 43.16 42.51 42.70
47.59 48.21 47.59 46.75 46.06 46.37 47.57 47.30 50.40 49.83 50.34 49.30 49.82 51.46 51.90 50.35 49.26 52.30 55.98 55.68 53.05 52.85 53.06 50.99 50.91 49.82 48.41 47.85 48.42 48.34 45.32 47.50 46.57 43.57 42.48 42.76 43.00 43.48 43.61 43.19 43.72 45.34 45.88 45.19 44.59 44.00 43.78 43.72 43.20 43.32 43.58 43.46 43.58 43.65
MSLP
1019.42 1019.01 1018.65 1018.27 1018.15 1018.04 1017.79 1017.52 1017.30 1017.00 1016.71 1016.80 1016.33 1016.25 1015.87 1015.35 1015.27 1015.28 1014.33 1013.28 1013.65 1013.83 1012.62 1011.66 1010.96 1011.07 1011.51 1012.27 1013.23 1013.45 1013.98 1014.39 1015.24 1016.71 1017.90 1018.79 1018.81 1018.60 1018.45 1018.02 1017.89 1018.40 1018.85 1019.16 1018.91 1018.25 1016.97 1015.21 1014.51 1014.73 1015.68 1015.68 1015.37 1016.22
1018.80 1018.49 1018.27 1018.06 1017.95 1017.74 1017.61 1017.32 1017.05 1016.81 1016.64 1016.55 1016.30 1016.09 1015.78 1015.44 1015.30 1014.97 1014.78 1013.24 1013.21 1013.77 1012.77 1011.71 1010.95 1010.42 1010.68 1011.25 1012.13 1013.15 1014.01 1014.64 1015.29 1016.73 1017.76 1018.46 1018.99 1018.97 1019.07 1018.82 1018.03 1018.57 1018.07 1018.21 1018.50 1017.94 1016.63 1015.68 1015.49 1015.57 1015.73 1016.12 1016.54 1016.59
1018.25 1017.87 1017.68 1017.55 1017.39 1017.30 1017.13 1016.94 1016.77 1016.71 1016.67 1016.34 1016.28 1016.41 1016.04 1015.53 1015.39 1015.26 1015.11 1014.29 1013.74 1013.97 1013.02 1012.12 1010.99 1010.51 1010.37 1010.79 1011.29 1012.72 1013.83 1013.98 1014.89 1015.28 1016.79 1017.81 1018.46 1018.61 1019.09 1018.72 1018.13 1017.78 1017.45 1017.93 1017.98 1017.31 1016.57 1016.01 1015.74 1015.66 1015.91 1016.33 1016.61 1017.04
1017.60 1017.35 1017.14 1017.00 1016.93 1016.80 1016.85 1016.63 1016.53 1016.47 1016.43 1016.26 1016.13 1016.18 1015.92 1015.63 1015.59 1015.26 1015.24 1014.56 1014.48 1014.43 1014.07 1012.34 1010.69 1010.65 1010.30 1010.69 1011.25 1011.96 1013.00 1013.69 1014.42 1015.29 1016.56 1017.51 1018.04 1017.87 1018.43 1017.99 1018.01 1017.41 1017.21 1017.60 1017.78 1017.15 1016.51 1016.03 1015.69 1015.69 1015.99 1016.39 1016.79 1017.13
1016.97 1016.75 1016.60 1016.56 1016.57 1016.41 1016.48 1016.38 1016.22 1016.00 1016.39 1015.98 1015.91 1016.03 1015.86 1015.44 1015.38 1015.14 1015.11 1014.49 1014.40 1014.79 1014.55 1013.40 1011.95 1010.81 1010.66 1011.05 1011.63 1012.23 1013.04 1014.15 1015.30 1016.19 1017.09 1017.68 1017.50 1017.79 1018.00 1017.98 1017.91 1016.83 1016.77 1017.31 1017.12 1016.90 1016.55 1016.26 1015.81 1015.72 1015.73 1016.13 1016.55 1017.07
1016.40 1016.19 1016.06 1016.09 1016.25 1016.13 1016.12 1016.09 1015.97 1015.83 1015.95 1016.17 1015.86 1015.79 1015.91 1015.42 1015.20 1015.07 1015.01 1014.49 1014.29 1014.33 1014.59 1013.97 1012.16 1011.41 1011.24 1011.57 1012.17 1012.79 1013.46 1014.40 1015.38 1016.48 1017.11 1017.20 1017.04 1017.41 1018.27 1018.41 1016.99 1016.43 1016.08 1016.05 1016.19 1016.13 1016.15 1015.76 1015.65 1015.45 1015.90 1016.00 1016.16 1016.54
1016.05 1015.90 1015.79 1015.75 1015.74 1015.72 1015.73 1015.89 1015.91 1016.06 1015.79 1016.08 1015.92 1015.72 1015.72 1015.39 1015.62 1015.52 1015.18 1014.65 1014.39 1014.53 1014.69 1014.45 1012.99 1011.75 1011.60 1012.11 1012.83 1013.27 1013.66 1014.59 1015.29 1016.30 1016.89 1017.35 1017.36 1017.47 1018.04 1017.74 1016.49 1015.92 1015.73 1015.67 1015.62 1015.58 1015.81 1015.72 1015.62 1015.57 1015.63 1015.70 1015.86 1016.25
1015.82 1015.67 1015.54 1015.52 1015.51 1015.41 1015.48 1015.63 1015.88 1016.09 1015.94 1015.63 1015.83 1015.60 1015.39 1015.27 1015.38 1014.91 1013.99 1013.77 1014.62 1014.77 1014.81 1014.79 1013.69 1012.65 1012.12 1013.05 1013.77 1013.82 1014.63 1015.09 1015.55 1016.10 1016.77 1017.37 1017.68 1017.84 1017.74 1016.31 1015.86 1015.47 1015.24 1015.52 1015.41 1015.35 1015.38 1015.43 1015.55 1015.54 1015.52 1015.65 1015.88 1016.18
1015.78 1015.57 1015.50 1015.51 1015.38 1015.32 1015.42 1015.51 1015.82 1016.06 1016.07 1015.56 1015.45 1015.28 1015.32 1014.99 1014.98 1014.15 1013.79 1014.06 1014.26 1015.06 1015.09 1014.86 1014.21 1013.36 1012.37 1013.25 1013.97 1014.44 1014.81 1015.81 1015.80 1016.27 1016.77 1017.33 1017.85 1017.85 1016.32 1015.92 1015.47 1015.13 1015.16 1015.10 1015.02 1015.11 1015.31 1015.53 1015.64 1015.72 1015.85 1015.74 1015.63 1015.99
1015.87 1015.69 1015.65 1015.61 1015.53 1015.42 1015.69 1015.92 1015.86 1015.63 1015.85 1015.55 1015.30 1015.27 1014.93 1014.28 1014.09 1013.87 1014.09 1014.43 1014.59 1014.72 1014.97 1014.95 1013.79 1013.19 1012.87 1013.84 1014.59 1015.21 1015.50 1016.00 1016.29 1016.14 1016.46 1017.03 1017.20 1016.11 1015.26 1015.02 1014.72 1014.73 1014.77 1014.76 1014.97 1015.25 1015.31 1015.63 1016.00 1016.04 1015.94 1016.14 1016.20 1016.45
1016.21 1016.20 1016.09 1015.95 1015.87 1015.69 1016.00 1016.19 1015.92 1015.56 1015.50 1015.52 1015.52 1015.43 1014.65 1014.35 1014.37 1014.51 1014.64 1014.80 1014.87 1014.98 1014.45 1013.69 1013.39 1013.17 1012.89 1013.78 1014.75 1015.07 1015.88 1016.43 1016.53 1016.10 1016.38 1017.01 1016.86 1015.57 1014.55 1014.42 1014.35 1014.35 1014.31 1014.48 1014.61 1014.89 1015.02 1015.35 1015.65 1016.02 1016.12 1015.99 1016.39 1016.43
1016.65 1016.79 1016.79 1016.89 1016.36 1015.86 1016.08 1016.29 1016.15 1015.88 1016.03 1016.46 1016.50 1015.81 1015.16 1014.78 1014.77 1014.90 1014.67 1014.43 1014.39 1014.14 1013.11 1012.66 1012.47 1012.73 1013.50 1013.70 1014.81 1015.71 1016.14 1016.65 1016.54 1016.19 1016.42 1016.92 1016.20 1015.66 1014.69 1014.30 1014.13 1014.11 1014.26 1014.45 1014.49 1014.79 1015.14 1015.27 1015.36 1015.74 1016.13 1016.31 1016.36 1016.49
1016.58 1016.73 1016.70 1016.74 1016.59 1016.01 1016.11 1016.22 1016.23 1016.11 1015.91 1015.95 1016.11 1015.67 1015.01 1014.83 1014.75 1014.59 1014.20 1013.81 1013.65 1012.94 1012.54 1012.21 1012.79 1013.17 1013.91 1014.54 1015.55 1016.04 1016.36 1016.43 1016.34 1016.51 1016.78 1016.69 1016.04 1015.83 1014.91 1014.28 1014.35 1014.36 1014.13 1014.61 1014.94 1015.01 1015.14 1015.33 1015.51 1015.78 1015.92 1015.99 1016.15 1016.27
1016.48 1016.56 1016.37 1016.46 1016.33 1016.06 1016.07 1016.13 1016.14 1016.06 1016.16 1016.09 1015.63 1015.42 1014.66 1014.11 1013.58 1013.11 1012.69 1012.63 1012.51 1012.70 1012.79 1012.65 1013.08 1013.62 1014.09 1014.99 1015.71 1016.23 1016.62 1016.61 1016.68 1016.83 1016.54 1016.05 1015.93 1015.64 1015.01 1014.93 1014.95 1015.00 1015.04 1015.10 1015.15 1015.35 1015.63 1015.71 1015.65 1015.71 1015.72 1015.85 1015.93 1016.14
1016.61 1016.39 1016.16 1016.10 1016.05 1015.93 1015.84 1015.93 1016.03 1016.13 1016.27 1015.83 1014.72 1013.96 1013.19 1012.29 1011.89 1011.65 1011.53 1012.25 1012.32 1012.48 1012.64 1012.93 1013.47 1013.85 1014.59 1015.37 1016.21 1016.81 1016.91 1016.63 1016.49 1016.20 1015.75 1015.65 1015.73 1015.64 1015.64 1015.58 1015.49 1015.61 1015.81 1015.95 1015.94 1016.09 1016.21 1016.25 1016.27 1016.23 1016.15 1016.21 1016.25 1016.22
1016.39 1015.93 1015.81 1015.81 1015.80 1015.78 1015.71 1015.89 1016.07 1016.01 1015.78 1015.03 1013.83 1012.73 1011.78 1011.75 1011.48 1010.90 1010.63 1011.57 1011.50 1011.67 1012.37 1013.03 1013.58 1014.21 1014.89 1015.48 1016.31 1016.41 1016.49 1016.00 1015.39 1015.28 1015.25 1015.31 1015.47 1015.66 1015.71 1015.74 1015.73 1015.86 1016.08 1016.31 1016.47 1016.57 1016.64 1016.77 1016.88 1017.00 1016.93 1016.99 1017.01 1016.91
1016.30 1015.75 1015.67 1015.86 1015.83 1015.80 1015.86 1015.85 1015.81 1015.71 1015.04 1013.70 1012.44 1011.47 1011.33 1011.33 1011.10 1010.43 1010.02 1010.25 1011.05 1012.06 1012.88 1013.05 1013.31 1013.84 1014.61 1015.17 1015.63 1015.55 1015.11 1014.51 1014.37 1014.73 1014.77 1015.07 1015.26 1015.59 1015.75 1015.74 1015.89 1016.17 1016.51 1016.75 1016.99 1017.27 1017.30 1017.30 1017.42 1017.55 1017.68 1017.62 1017.29 1016.93
1016.09 1015.72 1015.75 1015.87 1015.68 1015.57 1015.49 1015.56 1015.23 1014.33 1013.65 1012.47 1011.95 1010.91 1010.65 1010.37 1010.19 1010.03 1009.96 1009.97 1010.73 1011.35 1012.34 1011.87 1011.95 1013.11 1013.72 1014.14 1014.25 1013.75 1013.64 1013.68 1013.85 1014.23 1014.55 1014.99 1015.10 1015.37 1015.45 1015.73 1015.89 1016.20 1016.66 1017.00 1017.28 1017.44 1017.52 1017.64 1017.91 1018.07 1017.95 1017.70 1017.31 1016.80
1015.85 1015.91 1015.89 1015.84 1015.75 1015.69 1015.23 1014.71 1014.32 1013.55 1012.15 1011.28 1010.66 1010.07 1009.91 1009.78 1009.74 1009.68 1009.79 1009.77 1009.46 1009.61 1010.22 1010.87 1011.65 1012.27 1012.59 1012.49 1012.37 1012.51 1012.77 1013.14 1013.77 1014.35 1014.68 1014.66 1014.83 1015.17 1015.33 1015.59 1016.13 1016.65 1016.95 1017.25 1017.56 1017.82 1018.03 1018.01 1018.05 1018.09 1017.91 1017.75 1017.47 1017.15
1015.52 1015.30 1015.33 1015.52 1015.59 1015.50 1014.69 1013.31 1012.59 1012.45 1011.43 1010.27 1009.83 1009.61 1009.33 1009.24 1009.48 1009.74 1009.79 1009.76 1009.95 1010.11 1010.39 1010.43 1010.66 1010.53 1010.80 1010.93 1011.23 1011.56 1011.78 1012.36 1013.34 1014.31 1014.76 1014.74 1014.64 1014.95 1015.40 1015.95 1016.18 1016.64 1017.10 1017.54 1017.83 1017.90 1018.10 1018.14 1018.07 1018.05 1018.06 1017.92 1017.74 1017.67
1015.00 1014.67 1014.69 1015.15 1015.44 1015.28 1014.45 1012.97 1011.89 1011.09 1010.30 1009.83 1009.05 1009.11 1009.17 1009.40 1009.73 1009.93 1010.00 1009.84 1010.19 1010.13 1009.94 1009.61 1009.66 1009.55 1009.75 1010.14 1010.51 1011.11 1011.59 1011.97 1012.84 1013.19 1013.78 1014.43 1014.49 1014.70 1015.50 1015.98 1016.19 1016.63 1017.16 1017.64 1017.87 1018.01 1018.06 1018.07 1017.87 1017.63 1017.58 1017.51 1017.40 1017.18
1014.54 1014.44 1014.72 1015.11 1014.94 1014.19 1013.65 1012.16 1011.59 1010.62 1010.18 1009.40 1008.97 1008.58 1009.00 1009.37 1009.79 1010.09 1010.14 1010.18 1009.95 1009.49 1009.41 1009.17 1009.16 1009.59 1010.15 1010.63 1010.95 1010.97 1011.48 1011.91 1012.33 1012.75 1013.33 1013.71 1014.45 1015.19 1015.66 1015.84 1016.35 1016.85 1017.13 1017.47 1017.61 1017.68 1017.69 1017.57 1017.48 1017.43 1017.36 1017.15 1016.85 1016.56
1014.40 1014.31 1014.27 1013.85 1013.91 1012.99 1012.17 1010.94 1010.90 1010.00 1009.78 1008.81 1008.16 1008.47 1009.22 1009.47 1009.61 1009.61 1009.68 1009.51 1009.11 1008.47 1008.46 1008.74 1009.20 1009.49 1010.02 1010.50 1010.77 1011.15 1011.48 1011.87 1012.59 1012.94 1013.25 1013.63 1014.15 1014.64 1015.12 1015.60 1015.81 1016.16 1016.65 1016.93 1016.85 1017.06 1017.25 1017.09 1017.03 1016.97 1016.97 1016.82 1016.69 1016.53
1014.21 1014.11 1013.43 1012.91 1012.66 1012.16 1011.09 1010.35 1009.52 1008.90 1008.36 1008.43 1008.33 1008.84 1009.15 1009.31 1009.43 1009.63 1009.61 1009.15 1008.60 1008.49 1008.71 1009.13 1009.47 1010.23 1010.59 1010.76 1011.11 1011.37 1011.69 1012.00 1012.47 1012.97 1013.17 1013.52 1014.13 1014.69 1014.78 1015.16 1015.34 1015.43 1015.65 1015.93 1016.35 1016.58 1016.67 1016.79 1016.62 1016.67 1016.71 1016.65 1016.68 1016.83
1014.24 1013.60 1013.42 1012.53 1011.61 1011.12 1010.05 1009.16 1008.54 1008.32 1007.85 1007.77 1007.95 1008.41 1008.49 1008.83 1008.99 1009.01 1008.61 1008.29 1008.32 1008.57 1008.81 1009.25 1009.64 1009.94 1010.44 1010.88 1011.25 1011.35 1011.41 1011.75 1012.40 1013.13 1013.27 1013.12 1013.73 1014.29 1014.72 1014.86 1014.95 1015.03 1015.17 1015.70 1016.13 1016.24 1016.24 1016.26 1016.32 1016.53 1016.45 1016.51 1016.65 1016.46
1013.30 1012.42 1012.12 1010.91 1010.16 1009.67 1008.63 1007.81 1007.69 1007.35 1007.19 1007.11 1006.91 1007.02 1007.36 1007.92 1007.95 1007.59 1007.49 1007.49 1007.81 1007.97 1008.31 1008.73 1009.22 1009.77 1010.19 1010.40 1010.94 1011.28 1011.32 1011.47 1011.87 1012.46 1012.77 1012.49 1013.00 1013.61 1014.27 1014.85 1015.17 1015.21 1014.87 1014.96 1015.38 1015.71 1015.82 1015.81 1016.05 1016.09 1016.05 1016.10 1016.06 1016.14
1012.28 1011.18 1010.25 1009.37 1008.94 1008.46 1007.91 1007.01 1006.75 1006.87 1006.53 1006.09 1006.29 1006.74 1007.01 1007.13 1006.83 1006.69 1006.47 1006.51 1006.92 1007.02 1007.18 1007.59 1008.10 1008.69 1009.18 1009.70 1010.23 1010.36 1010.57 1010.83 1011.23 1011.55 1011.88 1012.11 1012.28 1012.36 1013.03 1013.81 1014.37 1014.30 1014.20 1014.53 1014.79 1014.89 1015.21 1015.42 1015.63 1015.77 1015.87 1015.81 1015.90 1016.03
1010.92 1009.85 1009.24 1008.75 1008.41 1007.93 1007.58 1006.88 1006.42 1005.88 1005.27 1005.42 1005.98 1006.87 1006.56 1006.29 1006.13 1005.85 1005.80 1005.82 1006.01 1006.42 1006.91 1007.08 1007.29 1007.65 1008.27 1008.85 1009.39 1010.10 1010.56 1010.69 1011.22 1011.61 1011.84 1012.31 1012.41 1012.26 1012.58 1013.25 1013.68 1013.86 1014.11 1014.25 1014.46 1014.60 1014.85 1015.05 1015.29 1015.44 1015.58 1015.74 1015.90 1015.88
1009.78 1008.84 1008.45 1008.01 1007.63 1007.07 1006.09 1005.63 1005.39 1004.64 1004.33 1005.12 1005.93 1006.34 1006.05 1005.58 1005.01 1004.89 1005.01 1005.41 1005.68 1006.30 1006.89 1007.25 1007.54 1007.77 1008.35 1008.80 1009.33 1009.80 1010.23 1010.68 1011.42 1011.86 1012.27 1013.04 1013.42 1013.55 1013.04 1013.18 1013.63 1013.88 1014.07 1014.31 1014.39 1014.46 1014.53 1014.79 1015.04 1015.18 1015.34 1015.49 1015.61 1015.54
1008.36 1007.85 1007.75 1007.05 1006.65 1006.01 1004.80 1004.37 1003.97 1003.37 1003.76 1004.27 1004.84 1005.62 1005.67 1005.53 1005.30 1004.74 1004.89 1005.48 1006.01 1006.61 1006.83 1006.92 1007.23 1007.67 1008.35 1008.97 1009.67 1010.10 1009.96 1010.19 1010.54 1011.12 1011.61 1011.97 1012.43 1012.54 1012.77 1013.04 1013.40 1013.61 1013.91 1014.15 1014.45 1014.62 1014.58 1014.68 1014.86 1015.01 1015.14 1015.27 1015.53 1015.53
1006.81 1006.67 1006.67 1006.22 1005.54 1004.47 1003.87 1003.16 1002.94 1003.45 1003.98 1005.11 1005.17 1005.53 1005.89 1005.56 1005.49 1005.77 1005.84 1005.68 1005.59 1006.33 1007.09 1007.50 1007.63 1007.60 1007.85 1008.28 1008.70 1009.19 1009.75 1009.67 1009.85 1010.05 1010.41 1010.68 1011.18 1011.96 1012.29 1012.33 1012.68 1012.98 1013.40 1013.75 1014.01 1014.29 1014.44 1014.59 1014.66 1014.70 1014.78 1014.94 1015.09 1015.20
1005.83 1005.61 1005.47 1005.21 1004.48 1003.42 1002.99 1003.09 1002.96 1003.32 1004.25 1004.95 1005.72 1006.01 1006.05 1005.92 1006.38 1006.69 1006.59 1006.19 1005.97 1006.29 1006.25 1006.56 1006.93 1006.95 1006.75 1006.89 1007.19 1007.64 1008.05 1008.56 1008.96 1009.31 1009.67 1009.95 1010.25 1010.69 1011.33 1011.69 1012.04 1012.53 1012.88 1013.25 1013.51 1013.74 1013.92 1014.06 1014.20 1014.30 1014.23 1014.40 1014.61 1014.64
1004.63 1004.51 1004.45 1004.37 1003.78 1003.30 1002.94 1003.11 1003.47 1003.91 1004.50 1005.37 1005.92 1006.19 1006.34 1006.71 1007.23 1007.58 1007.35 1007.27 1007.08 1006.94 1006.95 1006.71 1006.41 1006.34 1005.99 1005.99 1006.31 1006.72 1007.27 1007.75 1008.06 1008.77 1009.09 1009.41 1009.89 1010.38 1010.89 1011.30 1011.53 1011.83 1012.19 1012.47 1012.80 1013.06 1013.24 1013.35 1013.49 1013.45 1013.61 1013.74 1013.87 1013.99
Wind_Speed
13 12 11 10 11 10 12 12 12 9 5 8 9 11 12 13 14 6 5 3 4 1 6 5 4 3 4 4 5 5 6 6 4 4 4 3 3 3 4 2 2 3 3 2 2 2 4 4 6 5 5 4 5 6
14 12 11 10 10 11 12 11 11 9 5 7 8 9 9 10 12 9 3 4 1 3 6 2 5 1 7 6 6 2 6 4 5 5 2 3 2 2 4 2 0 2 7 6 7 7 7 4 5 4 5 6 3 10
14 12 11 11 9 12 10 10 10 8 6 6 7 9 9 9 11 8 2 4 4 3 5 4 5 4 5 3 5 5 3 4 2 5 5 3 2 5 4 5 3 3 3 3 5 3 3 3 3 5 4 7 8 8
13 12 11 10 10 8 9 9 9 6 6 6 6 7 8 8 9 8 1 2 2 0 2 7 2 5 4 3 6 5 6 5 5 4 3 3 3 3 4 5 5 6 3 4 2 5 1 3 4 7 5 6 7 6
13 12 11 10 9 7 8 8 8 5 6 5 5 7 8 9 11 4 2 3 1 4 2 5 7 4 5 5 7 8 6 5 3 3 3 0 1 4 2 3 2 3 6 5 7 6 6 5 2 3 9 8 8 8
12 10 9 9 9 8 7 7 7 3 3 5 5 5 7 8 11 3 4 2 4 2 3 3 4 4 3 7 7 5 4 3 3 4 2 0 2 5 3 2 6 1 3 7 5 6 6 6 5 3 7 7 7 10
9 8 8 8 8 7 6 5 4 3 2 5 5 6 6 7 2 2 4 3 6 2 3 4 4 3 5 5 2 1 3 2 4 2 1 3 1 4 3 5 6 5 1 4 5 5 2 2 4 2 3 9 10 9
8 6 6 7 6 5 5 4 4 2 4 4 6 7 8 7 5 4 3 7 4 2 3 1 4 3 3 1 0 1 3 3 3 4 2 3 2 2 4 7 5 5 3 2 5 6 6 4 4 4 5 7 9 9
7 5 4 4 4 4 4 6 2 2 5 7 8 8 2 2 1 3 6 8 1 4 2 1 4 5 1 2 2 4 3 2 1 2 3 5 2 5 8 7 6 6 5 6 3 1 5 5 4 2 2 4 10 7
8 6 2 1 2 7 6 4 1 4 6 8 2 1 2 2 5 2 5 3 4 2 1 3 2 3 5 1 2 3 2 2 1 4 3 2 4 6 8 8 7 6 7 6 3 4 2 3 4 1 3 3 1 11
11 10 7 7 7 7 4 4 5 8 3 2 2 1 2 2 3 1 1 2 1 1 3 5 6 2 2 5 3 2 2 2 1 5 5 2 4 4 4 7 7 5 5 8 7 6 6 6 6 6 5 3 4 6
7 6 4 2 2 3 1 3 5 3 2 1 3 4 3 0 1 2 3 3 3 4 4 4 5 5 2 4 4 2 3 1 4 2 2 2 4 5 4 3 5 5 7 6 6 6 6 6 6 5 5 3 3 4
8 7 5 6 5 3 3 3 4 4 5 1 0 2 3 2 2 6 5 3 3 4 3 1 3 4 3 4 3 3 3 3 2 1 3 5 2 5 2 5 7 6 4 8 6 4 3 3 5 5 5 5 6 7
7 8 8 7 6 4 5 4 3 3 3 0 2 3 5 4 5 6 5 4 4 2 1 2 3 2 3 4 3 3 1 1 2 3 5 3 5 5 3 4 5 6 6 6 6 5 1 3 4 4 5 5 5 7
8 9 7 4 3 5 5 5 3 1 1 3 2 4 6 6 3 5 6 5 2 3 2 3 3 2 3 5 2 3 2 3 4 5 3 3 6 5 2 1 4 5 6 7 5 5 5 4 3 2 4 5 5 4
10 11 3 2 3 5 6 7 2 1 2 3 5 4 4 1 4 3 1 4 4 5 5 3 3 2 2 5 4 6 3 6 5 4 4 5 6 4 5 5 6 7 6 5 4 3 4 5 5 4 5 6 6 6
7 2 4 2 2 1 2 1 3 3 4 5 5 4 5 4 5 6 2 5 7 4 1 3 5 5 4 3 4 5 6 4 4 4 3 4 6 7 5 6 6 6 5 4 4 3 4 4 5 6 7 6 6 6
3 2 2 1 3 1 1 2 3 4 7 6 4 6 4 4 3 3 1 3 5 6 7 7 6 4 6 7 5 5 4 3 3 5 5 5 6 6 6 6 5 6 5 4 7 4 6 7 6 3 4 6 6 6
2 3 5 3 2 0 2 5 4 4 6 4 4 4 3 2 1 2 2 2 2 3 5 2 3 4 4 4 5 4 4 5 6 4 4 5 7 6 6 3 4 7 7 5 5 4 3 4 2 1 2 2 2 3
12 15 12 6 3 2 4 4 4 4 4 4 2 4 3 3 4 3 2 2 3 2 2 4 4 4 5 4 5 3 3 8 8 6 3 3 4 6 3 7 6 7 6 6 5 5 3 3 2 1 2 2 1 1
5 2 7 6 2 3 3 4 4 5 4 3 3 1 3 2 1 1 1 1 2 2 3 4 4 4 3 3 5 4 6 10 8 8 8 4 5 5 5 8 6 5 4 4 4 4 4 4 4 4 2 2 3 4
2 1 2 2 3 4 4 5 4 4 2 4 4 3 3 2 2 1 2 1 3 4 4 3 3 5 5 6 5 5 7 7 5 5 5 5 3 4 8 7 5 5 5 5 5 5 5 3 4 3 3 3 4 1
7 4 3 5 5 2 8 2 3 4 3 4 2 2 3 2 0 1 1 2 4 2 2 3 5 4 8 6 7 5 6 8 5 5 5 5 4 7 7 6 6 6 5 4 4 5 4 5 5 4 3 3 2 4
2 2 4 4 6 5 3 4 4 4 3 2 1 3 2 3 2 2 3 3 3 2 2 4 5 5 3 5 4 3 3 4 5 4 4 6 4 4 7 7 5 5 6 5 5 4 4 5 6 3 2 2 1 2
2 6 4 6 4 4 4 4 4 2 3 3 3 4 4 3 4 5 4 3 3 3 4 4 4 4 5 3 2 3 4 6 6 6 3 5 4 4 4 5 5 6 5 5 4 5 4 3 5 4 4 3 3 4
4 5 8 5 5 5 5 1 2 3 4 5 5 3 3 3 3 4 4 6 5 5 7 6 6 4 3 5 5 4 5 5 5 5 4 6 6 6 6 7 5 4 4 5 5 5 5 4 5 5 3 4 3 2
4 6 6 5 3 2 4 3 3 3 5 4 4 3 2 3 4 3 1 3 4 4 6 6 6 6 5 7 4 3 4 6 8 7 5 5 4 6 7 7 7 6 5 6 6 6 5 5 7 6 3 3 4 4
5 5 5 5 4 4 4 3 2 5 4 4 5 4 3 4 4 4 5 4 5 5 5 4 4 5 7 7 7 6 4 5 7 5 6 6 3 5 8 6 5 9 6 5 6 6 6 6 5 5 5 4 2 3
5 4 2 7 4 4 6 7 6 5 4 4 4 3 4 3 3 3 3 5 5 5 5 4 4 8 6 5 6 6 6 6 7 7 7 5 3 2 3 6 5 4 5 5 5 6 8 6 6 6 6 6 4 3
6 5 3 3 2 4 5 4 5 4 2 3 4 3 4 5 4 2 5 5 4 4 8 8 9 10 9 9 7 4 4 6 6 7 7 7 7 5 6 6 6 5 5 5 5 3 3 3 3 1 1 1 3 3
4 3 5 6 5 7 10 6 1 4 4 3 2 4 3 2 3 6 6 2 5 7 8 7 6 8 10 9 9 8 6 5 8 9 7 5 8 10 7 7 6 7 6 6 6 6 5 4 4 5 5 5 7 6
4 7 5 7 11 10 5 3 3 3 3 3 2 1 3 3 3 5 6 6 4 3 7 8 8 9 10 10 10 9 12 9 8 7 10 7 9 10 9 6 6 7 8 7 7 6 8 8 6 7 7 7 8 8
5 6 6 4 4 4 4 1 3 3 3 2 2 2 1 3 3 0 3 4 5 5 6 4 3 5 9 10 12 10 8 7 12 13 13 14 13 11 7 5 5 6 8 6 6 7 12 10 8 8 9 9 9 8
Wind_Direction
294 295 300 308 309 306 306 309 312 312 332 325 341 350 360 4 356 10 274 287 107 109 287 357 14 75 30 75 132 251 42 353 39 62 105 241 109 244 63 272 151 138 110 219 79 102 265 304 6 100 218 7 112 111
287 287 289 296 297 297 296 302 304 306 313 316 339 347 356 5 355 354 310 309 23 129 236 258 261 203 133 181 134 32 168 179 181 88 55 111 76 84 154 265 26 336 173 181 155 214 232 285 111 103 123 115 64 115
290 284 280 281 282 291 281 291 295 301 302 311 339 347 353 6 356 6 276 297 23 48 319 33 259 247 84 109 155 113 325 165 55 167 159 166 145 123 156 242 185 280 159 126 66 294 180 149 82 100 110 125 138 140
293 286 276 272 277 275 278 285 292 297 287 315 340 341 352 358 347 355 319 304 107 84 104 285 11 137 168 87 101 123 144 52 107 78 107 125 139 148 189 193 143 202 119 172 255 273 38 212 183 151 120 132 129 148
295 283 273 263 265 263 270 279 290 265 282 321 336 342 348 350 334 313 224 261 242 137 205 277 318 272 126 106 120 104 97 88 68 41 57 248 190 75 334 69 247 180 183 148 219 215 160 236 281 261 161 171 163 155
295 281 263 248 250 255 260 270 286 241 281 312 337 349 339 351 343 14 38 329 14 24 83 325 280 161 110 114 108 108 119 113 101 128 208 221 255 108 115 220 261 283 204 168 208 192 202 240 228 188 213 211 177 163
304 290 263 245 242 242 250 260 238 233 330 319 330 337 323 357 359 142 186 236 13 339 80 322 315 287 139 96 33 76 52 127 118 150 137 154 277 94 139 207 231 198 130 213 208 151 314 233 249 165 264 216 189 181
319 299 266 242 239 242 232 222 193 236 316 327 316 316 308 298 274 323 263 243 162 84 83 241 273 37 129 127 258 140 102 40 352 174 52 123 14 76 256 248 241 251 287 313 238 215 209 229 239 276 263 214 182 179
345 336 296 250 239 234 182 152 170 293 321 317 305 307 314 62 45 242 115 129 143 123 164 326 165 226 84 156 133 22 86 78 288 157 214 107 181 219 227 217 217 223 204 196 163 142 280 222 206 249 310 324 209 190
8 10 360 260 232 124 118 130 355 10 313 305 312 28 358 228 126 101 16 30 14 333 60 220 252 231 109 88 31 86 37 206 162 243 96 126 253 246 236 214 212 203 212 171 139 273 242 200 202 19 335 109 60 40
36 38 62 95 109 110 97 58 17 346 311 341 13 360 273 269 46 44 221 144 232 285 228 227 185 199 338 120 166 111 139 354 326 255 138 250 268 257 285 201 216 224 198 189 189 194 179 185 193 201 232 178 103 81
40 43 39 48 108 108 116 332 346 349 40 206 285 280 282 54 3 159 215 239 206 231 245 189 198 164 45 73 87 12 117 108 263 311 84 309 269 317 35 83 209 185 171 189 184 189 166 193 202 189 192 196 141 117
6 351 316 290 293 314 315 330 355 314 319 118 292 274 153 239 56 180 218 213 213 217 265 295 52 106 59 67 73 119 149 219 1 137 218 230 227 268 232 73 39 329 152 105 93 87 155 211 191 177 185 194 185 179
337 322 323 285 274 297 291 292 339 24 48 107 173 286 172 223 223 200 210 182 243 98 84 43 84 86 130 84 130 100 58 352 231 220 234 238 208 237 231 44 22 86 92 98 103 108 98 255 254 231 228 241 222 213
310 307 317 290 318 317 271 208 164 107 57 257 237 234 215 225 244 219 208 132 178 157 107 77 46 104 61 88 53 91 219 229 221 228 221 201 201 206 264 212 98 77 81 83 86 81 64 65 67 55 27 22 17 354
317 305 215 131 36 39 116 138 129 133 259 243 246 285 280 138 270 279 216 104 191 167 96 53 123 140 130 136 159 207 212 222 235 191 192 170 172 172 149 130 115 116 122 95 80 94 79 46 28 27 36 27 7 344
312 246 153 114 73 132 204 176 142 218 237 246 251 225 235 263 240 258 241 190 125 123 128 178 152 181 114 151 204 181 213 212 176 177 180 155 148 152 137 125 122 129 124 138 105 99 101 74 76 42 19 342 327 303
238 143 162 14 355 353 208 194 247 238 234 242 251 253 228 221 241 294 215 105 142 155 177 217 132 161 178 177 210 222 208 171 170 164 164 152 132 142 145 157 167 160 145 109 129 103 67 57 50 5 342 333 328 330
292 298 289 306 32 266 247 204 199 254 251 241 248 265 222 230 334 113 155 289 117 156 110 71 122 178 212 209 196 204 178 166 167 166 178 168 158 163 189 190 101 115 103 114 108 102 104 112 156 250 311 11 22 14
279 268 246 225 176 251 257 248 167 231 263 241 246 258 217 209 160 173 155 77 81 85 86 168 202 198 181 207 178 179 162 144 138 134 162 195 194 176 167 134 124 137 120 110 124 117 90 56 351 338 342 345 100 11
294 117 107 143 184 224 272 283 261 218 250 245 253 224 258 88 136 319 338 130 75 198 206 207 196 191 207 149 136 131 123 140 162 162 174 184 217 173 111 141 126 103 113 132 132 145 152 195 228 253 280 286 252 237
269 154 116 186 234 212 241 229 222 276 296 253 290 182 199 168 130 103 195 244 239 218 200 190 150 123 110 116 143 130 140 117 117 118 137 136 122 106 144 147 133 154 153 169 173 182 213 220 233 268 292 300 329 224
305 157 241 204 226 214 254 168 218 237 229 254 323 72 39 356 69 30 308 240 258 250 156 105 122 119 122 132 113 113 127 128 117 120 133 136 142 140 143 149 161 147 160 211 182 179 202 222 251 234 230 307 328 346
289 256 239 231 180 246 255 235 224 255 208 202 207 133 192 213 148 77 249 229 237 124 85 132 122 102 72 96 121 150 152 138 123 129 151 127 115 142 162 166 175 173 171 174 169 190 202 204 234 255 292 290 347 328
198 264 129 274 263 227 230 232 208 240 260 216 188 183 227 164 201 191 223 195 143 154 156 148 137 136 138 156 170 199 189 140 146 151 207 147 133 102 114 166 176 180 166 142 166 196 225 186 186 203 209 198 208 196
213 234 175 228 215 201 229 249 33 235 231 213 223 160 142 166 233 220 212 181 173 168 173 167 166 163 177 168 164 186 199 175 136 127 206 165 163 157 165 160 173 246 212 172 159 180 191 196 166 169 188 150 165 146
248 251 222 223 235 291 285 255 200 181 251 225 178 148 163 228 238 242 191 166 156 196 170 167 161 171 187 165 174 175 163 143 156 171 161 140 160 180 163 159 174 211 174 166 168 153 164 150 148 174 146 137 201 204
242 260 226 251 231 221 260 272 278 263 206 168 87 337 232 209 232 191 191 201 158 150 170 180 169 144 145 149 141 128 117 113 108 107 75 61 43 96 107 108 115 118 116 121 124 118 102 129 159 163 154 144 119 123
244 262 270 266 261 247 228 197 223 249 196 125 99 271 250 232 246 152 136 155 158 137 125 109 120 123 111 103 116 133 130 125 124 143 152 143 136 271 169 134 139 138 139 126 104 137 140 138 140 134 147 153 178 160
237 189 237 280 262 257 244 226 246 256 75 128 109 44 5 347 319 303 112 139 139 150 146 147 141 140 145 141 149 169 175 161 163 159 173 193 200 175 168 156 163 170 169 162 161 149 106 102 94 118 176 147 178 196
263 144 199 210 233 252 259 250 248 95 88 64 13 112 170 198 33 21 16 330 140 123 145 151 158 163 158 161 167 173 202 223 188 188 187 190 156 168 178 170 176 169 171 176 167 167 177 193 197 198 236 220 192 189
211 202 196 252 261 263 272 257 246 123 136 116 73 47 17 42 75 2 354 354 46 127 176 159 171 192 190 183 183 187 187 184 182 171 164 152 157 164 174 179 167 174 183 184 199 197 198 206 208 222 226 206 201 205
206 227 235 251 286 310 299 104 151 145 88 85 107 153 102 112 116 278 327 3 33 21 9 2 358 290 203 174 182 186 162 168 161 155 155 150 155 156 155 165 164 166 171 183 187 191 208 214 205 192 183 197 205 206